THOR ABLESTAR DEB, 268

Orbit data source: Space-Track

THOR ABLESTAR DEB, 268 is space debris in LEO originally from a launch on Thu, 29 Jun 1961 UTC launched from the Air Force Eastern Test Range (AFETR). Debris objects in space refer to the collection of defunct objects orbiting the Earth. Examples of debris include non-operational satellites, rocket bodies, and fragments generated from explosions, collisions, or faulty payload assembly.

Loading next visibility...
Identifier
268, 1961-015CN
Orbit
LEO
Country
Flag of USUS
Related business
Manufacturer
Unknown
Mission
Spacecraft
Bus & Motor
Unknown
Mass
Unknown
Launch date (UTC)
1961-06-29 (64 years ago)
Launch vehicle
Unknown
Launch site
Air Force Eastern Test Range (AFETR)
Object type
Payload
Rocket body
Debris
Shape & HBR
Unknown
Radar Cross Section
Medium (>0.1 m² and <1 m²)

Expand to show TLE details & history
Last TLE update: 15 hours ago

TLE from 15 hours ago
0 THOR ABLESTAR DEB
1 00268U 61015CN  25258.50795266  .00000196  00000-0  72183-3 0  9991
2 00268  67.9420 350.2414 0648867 345.0830  29.3562 12.51535779918883
Epoch: 2025-09-15T12:11Z
TLE epoch observation values (Epoch: 2025-09-15T12:11:27.109Z)
Latitude
16.97432°
Longitude
179.73432°
Altitude
1,024.944 km
Speed
7.542 km/s
True Right ascension
23h 49m 14s
True Declination
16° 52' 55"
Sunlit
Object was in full shadow at epoch
Visualization orbit readout
Latitude
Unknown
Longitude
Unknown
Altitude
Unknown
Speed
Unknown
Apparent Right ascension
Unknown
Apparent Declination
Unknown
Sunlit
N/A
Visualization observer readout
Local Sidereal Time
19:53:00
Azimuth
Unknown
Elevation
Unknown
Doppler factor
Unknown
Orbital elements
Apogee altitude
1,964.812 km
Perigee altitude
948.091 km
Semi-major axis
7,834.588 km
Eccentricity
0.06489
Inclination
67.942°
RAAN
350.2414°
Arg. of periapsis
345.083°
True anomaly
33.27463°
Mean anomaly
29.3562°
Eccentric anomaly
31.28691°
Mean motion
3.12982 °/min
Orbital period
115.02 mins
BSTAR
0.00072183
Loading maneuver chart data...
Computing Atmospheric mass density...

Documentation

Showing up to 5 results
|